This demonstration page uses our WeatherBlox Daily Observations layout. Learn more.

Left ArrowRight Arrow

44.89941, -97.11507

Hourly Observations for November 19, 2020

Temp ( °F °C ) Dew Point ( °F °C ) Humidity (%) Winds ( mph kmh ) Pressure ( in mb ) Visibility ( mi km ) Precip ( " mm )
12:53 am 00:53 Clear 36 2.2 35 1.7 97 97 Calm 29.68 1005 10 16 0.00 0.00
1:53 am 01:53 Mostly Cloudy 37 2.8 36 2.2 96 96 NW 6 9 29.69 1005 10 16 0.00 0.00
2:53 am 02:53 Mostly Cloudy 40 4.4 37 2.8 89 89 Calm 29.67 1005 10 16 0.00 0.00
3:53 am 03:53 Clear 39 3.9 36 2.2 89 89 SE 3 6 29.70 1006 10 16 0.00 0.00
4:53 am 04:53 Clear 39 3.9 36 2.2 89 89 SSE 5 7 29.69 1005 10 16 0.00 0.00
5:53 am 05:53 Clear 35 1.7 34 1.1 96 96 NNW 8 13 29.74 1007 10 16 0.00 0.00
6:53 am 06:53 Clear 35 1.7 32 0 89 89 NNW 12 19 29.78 1009 10 16 0.00 0.00
7:53 am 07:53 Sunny 32 0 29 -1.7 88 88 N 8 13 29.78 1008 10 16 0.00 0.00
8:53 am 08:53 Sunny 35 1.7 32 0 89 89 N 6 9 29.79 1009 10 16 0.00 0.00
9:53 am 09:53 Sunny 43 6.1 35 1.7 74 74 NNW 9 15 29.82 1010 10 16 0.00 0.00
10:53 am 10:53 Sunny 53 11.7 35 1.7 51 51 NE 5 7 29.80 1009 10 16 0.00 0.00
11:53 am 11:53 Sunny 57 13.9 35 1.7 44 44 N 3 6 29.82 1010 10 16 0.00 0.00
12:53 pm 12:53 Sunny 59 15 35 1.7 41 41 NNW 8 13 29.82 1010 10 16 0.00 0.00
1:53 pm 13:53 Sunny 58 14.4 36 2.2 44 44 NNW 7 11 29.82 1010 10 16 0.00 0.00
2:53 pm 14:53 Sunny 55 12.8 35 1.7 47 47 NNW 15 24 29.85 1011 10 16 0.00 0.00
3:53 pm 15:53 Sunny 53 11.7 36 2.2 52 52 NNW 12 19 29.89 1012 10 16 0.00 0.00
4:53 pm 16:53 Sunny 46 7.8 35 1.7 66 66 NNW 6 9 29.94 1014 10 16 0.00 0.00
5:53 pm 17:53 Clear 39 3.9 33 0.6 79 79 NE 7 11 29.99 1016 10 16 0.00 0.00
6:53 pm 18:53 Cloudy 41 5 35 1.7 79 79 NNW 5 7 30.02 1017 10 16 0.00 0.00
7:53 pm 19:53 Cloudy 39 3.9 34 1.1 82 82 NW 3 6 30.05 1018 10 16 0.00 0.00
8:53 pm 20:53 Mostly Cloudy 39 3.9 34 1.1 82 82 W 7 11 30.08 1019 10 16 0.00 0.00
9:53 pm 21:53 Cloudy 42 5.6 37 2.8 82 82 W 9 15 30.10 1019 8 13 0.00 0.00
10:53 pm 22:53 Clear 41 5 37 2.8 86 86 WNW 13 20 30.10 1019 10 16 0.00 0.00
11:53 pm 23:53 Clear 38 3.3 35 1.7 89 89 W 9 15 30.13 1020 10 16 0.00 0.00

Powered by AerisWeather